(563) Suleika
ephemeris date magn radius delta ra dec elong phase
Today1 Jul 202514.22.990 AU3.153 AU11h39m+12°29'71.5°18.8°
Opposition19 May 202613.13.351 AU2.344 AU15h52m-13°29'173.4°2.0°
(563) Suleika - 2025-07-01
astro.vanbuitenen.nl


 
-1 year
-1 month
-1 day
Now
+1 day
+1 month
+1 year

The interactive orbit chart above shows the body's path through the solar system and its position at the given date. Green and blue lines are shown perpendicular to the ecliptic plane: Green if the path is above the ecliptic plane, blue if it is below. (Left-click and drag to rotate the view; Right-click and drag to move the view; Use scroll wheel to zoom in our out.)

The orbital elements of Suleika are:

            e (Eccentricity)                : 0.2364919
            a (Semimajor axis)              : 2.7113679
            i (Inclination)                 : 10.24748
            Ω (Longitude of ascending node) : 85.15068
            ω (Argument of perihelion)      : 336.57174
            M (Mean anomaly)                : 90.92465
            Epoch                           : 2025 May 05

            L (Longitude of perihelion)     : 62.05669
            B (Latitude of perihelion)      : -4.05610
            P (Orbital period in years)     : 4.46            
        

The light curve chart below shows the estimated development of the minor planet's magnitude.


The all-sky chart below shows the path of the minor planet over the same period as the light curve. The current position is marked yellow.





The following chart shows the path of the minor planet in the next few days. The field of view is optimized for (~10x50) binoculars and finderscopes. A more printer-friendly version of the same chart can be found below.




Ephemerides:
Date       Time       RA (2000)    DEC (2000)    delta   radius  elong  phase   PA    magn
2025-07-01 00:00 UT   11 39 28.3   +12 29 17     3.153    2.990   71.5   18.8   110   14.2 
2025-07-01 02:02 UT   11 39 33.1   +12 28 32     3.154    2.990   71.4   18.8   110   14.2 
2025-07-02 00:00 UT   11 40 24.6   +12 20 18     3.167    2.992   70.8   18.7   110   14.3 
2025-07-03 00:00 UT   11 41 21.4   +12 11 17     3.182    2.994   70.1   18.6   110   14.3 
2025-07-04 00:00 UT   11 42 18.7   +12 02 15     3.197    2.996   69.5   18.5   110   14.3 
2025-07-05 00:00 UT   11 43 16.5   +11 53 11     3.211    2.998   68.8   18.4   110   14.3 
2025-07-06 00:00 UT   11 44 14.7   +11 44 06     3.226    3.000   68.1   18.3   110   14.3 
2025-07-07 00:00 UT   11 45 13.4   +11 34 59     3.240    3.002   67.5   18.2   110   14.3 
2025-07-08 00:00 UT   11 46 12.5   +11 25 51     3.255    3.004   66.8   18.1   110   14.3 
2025-07-09 00:00 UT   11 47 12.0   +11 16 42     3.269    3.006   66.2   18.0   110   14.3 
2025-07-10 00:00 UT   11 48 12.0   +11 07 32     3.283    3.008   65.5   17.9   110   14.3 
2025-07-11 00:00 UT   11 49 12.4   +10 58 20     3.297    3.010   64.9   17.8   109   14.3 
2025-07-12 00:00 UT   11 50 13.2   +10 49 07     3.311    3.012   64.2   17.7   109   14.3 
2025-07-13 00:00 UT   11 51 14.4   +10 39 53     3.326    3.013   63.5   17.6   109   14.3 
2025-07-14 00:00 UT   11 52 16.0   +10 30 38     3.340    3.015   62.9   17.5   109   14.3 
2025-07-15 00:00 UT   11 53 18.0   +10 21 22     3.353    3.017   62.2   17.3   109   14.3 
2025-07-16 00:00 UT   11 54 20.3   +10 12 05     3.367    3.019   61.6   17.2   109   14.4 
2025-07-17 00:00 UT   11 55 23.1   +10 02 47     3.381    3.021   61.0   17.1   109   14.4 
2025-07-18 00:00 UT   11 56 26.2   +09 53 28     3.395    3.023   60.3   17.0   109   14.4 
2025-07-19 00:00 UT   11 57 29.7   +09 44 07     3.408    3.025   59.7   16.9   109   14.4 
2025-07-20 00:00 UT   11 58 33.5   +09 34 46     3.422    3.027   59.0   16.7   108   14.4 
2025-07-21 00:00 UT   11 59 37.7   +09 25 25     3.435    3.029   58.4   16.6   108   14.4 
2025-07-22 00:00 UT   12 00 42.3   +09 16 02     3.449    3.031   57.7   16.5   108   14.4 
2025-07-23 00:00 UT   12 01 47.2   +09 06 38     3.462    3.033   57.1   16.3   108   14.4 
2025-07-24 00:00 UT   12 02 52.4   +08 57 14     3.475    3.035   56.5   16.2   108   14.4 
2025-07-25 00:00 UT   12 03 58.0   +08 47 49     3.488    3.037   55.8   16.1   108   14.4 
2025-07-26 00:00 UT   12 05 03.8   +08 38 23     3.501    3.039   55.2   15.9   108   14.4 
2025-07-27 00:00 UT   12 06 10.0   +08 28 57     3.514    3.040   54.6   15.8   108   14.4 
2025-07-28 00:00 UT   12 07 16.6   +08 19 30     3.527    3.042   53.9   15.7   108   14.4 
2025-07-29 00:00 UT   12 08 23.4   +08 10 03     3.540    3.044   53.3   15.5   107   14.4 


    Terminology:
            
    delta:  distance between minor planet and earth in AU
    radius: distance between minor planet and sun in AU
    magn:   magnitude (brightness) estimate    
    ra:     right ascension in hours (24h = 360deg)
    dec:    declination in degrees
    elong:  elongation in degrees (angle sun-earth-minor planet)    
    phase:  phase angle in degrees (angle sun-minor planet-earth)        
    AU:     Astronomical Unit (mean distance between earth and sun: 149597870.7 km
    

Orbital elements provided by the MPC (Minor Planet Center).
Calculations by a modified version of AAPlus, a C# implementation of the AA+ project by PJ Naughter from the algorithms presented in the book "Astronomical Algorithms" by Jean Meeus.
NGC2000 dso catalog and star labels from VizieR as provided by the Strasbourg astronomical Data Center.
Tycho2 catalog from the ESO archive.